Hourly Weather Allariz

Today, 27 February, Saturday

Time Temperature Precipitation Wind Pressure Humidity
00:00 +8°C° 0 mm 1 mps 719 mmHg 89%
01:00 +8°C° 0 mm 1 mps 719 mmHg 89%
02:00 +8°C° 0 mm 1 mps 719 mmHg 89%
03:00 +7°C° 0 mm 1 mps 719 mmHg 89%
04:00 +7°C° 0 mm 1 mps 719 mmHg 89%
05:00 +7°C° 0 mm 1 mps 719 mmHg 88%
06:00 +8°C° 0 mm 1 mps 719 mmHg 85%
07:00 +9°C° 0 mm 1 mps 719 mmHg 83%
08:00 +10°C° 0 mm 1 mps 719 mmHg 80%
09:00 +12°C° 0 mm 1 mps 719 mmHg 73%
10:00 +14°C° 0 mm 1 mps 719 mmHg 67%
11:00 +16°C° 0 mm 1 mps 719 mmHg 60%
12:00 +16°C° 0 mm 1 mps 719 mmHg 60%
13:00 +18°C° 0 mm 1 mps 718 mmHg 59%
14:00 +18°C° 0 mm 1 mps 717 mmHg 58%
15:00 +15°C° 0 mm 1 mps 717 mmHg 66%
16:00 +14°C° 0 mm 1 mps 716 mmHg 74%
17:00 +11°C° 0 mm 0 mps 716 mmHg 82%
18:00 +11°C° 0 mm 1 mps 716 mmHg 85%
19:00 +10°C° 0 mm 1 mps 716 mmHg 87%
20:00 +9°C° 0 mm 1 mps 716 mmHg 90%
21:00 +9°C° 0 mm 1 mps 716 mmHg 90%
22:00 +9°C° 0 mm 1 mps 716 mmHg 91%
23:00 +8°C° 0 mm 1 mps 716 mmHg 91%

Tomorrow, 28 February, Sunday

Time Temperature Precipitation Wind Pressure Humidity
00:00 +8°C° 0 mm 1 mps 715 mmHg 90%
01:00 +8°C° 0 mm 1 mps 715 mmHg 88%
02:00 +7°C° 0 mm 1 mps 714 mmHg 87%
03:00 +7°C° 0 mm 1 mps 714 mmHg 86%
04:00 +7°C° 0 mm 1 mps 714 mmHg 85%
05:00 +6°C° 0 mm 1 mps 714 mmHg 83%
06:00 +7°C° 0 mm 1 mps 714 mmHg 81%
07:00 +8°C° 0 mm 1 mps 714 mmHg 79%
08:00 +9°C° 0 mm 1 mps 714 mmHg 77%
09:00 +11°C° 0 mm 1 mps 714 mmHg 69%
10:00 +13°C° 0 mm 1 mps 714 mmHg 61%
11:00 +15°C° 0 mm 1 mps 714 mmHg 53%
12:00 +15°C° 0 mm 1 mps 713 mmHg 52%
13:00 +16°C° 0 mm 1 mps 713 mmHg 51%
14:00 +16°C° 0 mm 1 mps 712 mmHg 51%
15:00 +14°C° 0 mm 1 mps 712 mmHg 57%
16:00 +13°C° 0 mm 1 mps 711 mmHg 64%
17:00 +11°C° 0 mm 1 mps 711 mmHg 70%
18:00 +11°C° 0 mm 1 mps 711 mmHg 69%
19:00 +10°C° 0 mm 1 mps 711 mmHg 69%
20:00 +10°C° 0 mm 1 mps 712 mmHg 68%
21:00 +9°C° 0 mm 1 mps 711 mmHg 69%
22:00 +8°C° 0 mm 1 mps 711 mmHg 71%
23:00 +8°C° 0 mm 1 mps 711 mmHg 72%

Day after tomorrow, 1 March, Monday

Time Temperature Precipitation Wind Pressure Humidity
00:00 +7°C° 0 mm 1 mps 711 mmHg 73%
01:00 +7°C° 0 mm 1 mps 711 mmHg 73%
02:00 +6°C° 0 mm 1 mps 711 mmHg 74%
03:00 +6°C° 0 mm 1 mps 710 mmHg 76%
04:00 +6°C° 0 mm 1 mps 710 mmHg 77%
05:00 +6°C° 0 mm 1 mps 710 mmHg 79%
06:00 +7°C° 0.1 mm 1 mps 711 mmHg 78%
07:00 +7°C° 0.1 mm 2 mps 711 mmHg 78%
08:00 +8°C° 0.1 mm 2 mps 711 mmHg 78%
09:00 +10°C° 0.1 mm 2 mps 712 mmHg 75%
10:00 +11°C° 0.1 mm 3 mps 712 mmHg 73%
11:00 +12°C° 0.1 mm 3 mps 712 mmHg 70%
12:00 +12°C° 0.1 mm 3 mps 712 mmHg 70%
13:00 +13°C° 0.1 mm 4 mps 712 mmHg 70%
14:00 +13°C° 0.1 mm 4 mps 712 mmHg 70%
15:00 +12°C° 0.1 mm 3 mps 712 mmHg 75%
16:00 +11°C° 0.1 mm 3 mps 712 mmHg 81%
17:00 +10°C° 0.1 mm 2 mps 712 mmHg 86%
18:00 +9°C° 0 mm 2 mps 712 mmHg 87%
19:00 +9°C° 0 mm 2 mps 713 mmHg 89%
20:00 +8°C° 0 mm 2 mps 713 mmHg 91%
21:00 +8°C° 0 mm 2 mps 714 mmHg 92%
22:00 +8°C° 0 mm 2 mps 714 mmHg 92%
23:00 +7°C° 0 mm 2 mps 714 mmHg 93%

2 March, Tuesday

Time Temperature Precipitation Wind Pressure Humidity
00:00 +7°C° 0 mm 2 mps 714 mmHg 94%
01:00 +7°C° 0 mm 2 mps 714 mmHg 95%
02:00 +7°C° 0 mm 1 mps 714 mmHg 96%
03:00 +7°C° 0 mm 1 mps 714 mmHg 96%
04:00 +7°C° 0 mm 1 mps 715 mmHg 96%
05:00 +7°C° 0 mm 1 mps 715 mmHg 96%
06:00 +8°C° 0 mm 1 mps 715 mmHg 93%
07:00 +8°C° 0 mm 1 mps 716 mmHg 90%
08:00 +9°C° 0 mm 1 mps 717 mmHg 87%
09:00 +10°C° 0 mm 1 mps 717 mmHg 81%
10:00 +12°C° 0 mm 2 mps 717 mmHg 76%
11:00 +13°C° 0 mm 2 mps 717 mmHg 70%
12:00 +14°C° 0 mm 2 mps 717 mmHg 67%
13:00 +14°C° 0 mm 2 mps 717 mmHg 64%
14:00 +15°C° 0 mm 2 mps 717 mmHg 61%
15:00 +14°C° 0 mm 1 mps 717 mmHg 68%
16:00 +12°C° 0 mm 1 mps 717 mmHg 75%
17:00 +10°C° 0 mm 0 mps 717 mmHg 82%
18:00 +9°C° 0 mm 0 mps 717 mmHg 85%
19:00 +8°C° 0 mm 0 mps 718 mmHg 87%
20:00 +8°C° 0 mm 1 mps 718 mmHg 90%
21:00 +8°C° 0 mm 1 mps 718 mmHg 90%
22:00 +8°C° 0 mm 1 mps 718 mmHg 91%
23:00 +8°C° 0 mm 1 mps 718 mmHg 91%

3 March, Wednesday

Time Temperature Precipitation Wind Pressure Humidity
00:00 +7°C° 0 mm 1 mps 718 mmHg 91%
01:00 +7°C° 0 mm 1 mps 718 mmHg 91%
02:00 +7°C° 0 mm 1 mps 718 mmHg 92%
03:00 +7°C° 0 mm 1 mps 718 mmHg 92%
04:00 +7°C° 0 mm 1 mps 718 mmHg 92%
05:00 +7°C° 0 mm 1 mps 718 mmHg 92%
06:00 +8°C° 0 mm 1 mps 718 mmHg 89%
07:00 +9°C° 0 mm 1 mps 719 mmHg 85%
08:00 +11°C° 0 mm 1 mps 719 mmHg 82%
09:00 +13°C° 0 mm 1 mps 719 mmHg 75%
10:00 +14°C° 0 mm 1 mps 719 mmHg 69%
11:00 +16°C° 0 mm 1 mps 720 mmHg 62%
12:00 +18°C° 0.2 mm 1 mps 719 mmHg 62%
13:00 +18°C° 0.2 mm 1 mps 719 mmHg 62%
14:00 +19°C° 0.2 mm 1 mps 719 mmHg 62%
15:00 +16°C° 0.3 mm 1 mps 718 mmHg 68%
16:00 +15°C° 0.3 mm 1 mps 718 mmHg 75%
17:00 +13°C° 0.3 mm 1 mps 717 mmHg 81%
18:00 +12°C° 0 mm 1 mps 718 mmHg 83%
19:00 +11°C° 0 mm 1 mps 718 mmHg 85%
20:00 +10°C° 0 mm 1 mps 718 mmHg 87%
21:00 +10°C° 0 mm 1 mps 718 mmHg 87%
22:00 +10°C° 0 mm 1 mps 717 mmHg 87%
23:00 +9°C° 0 mm 1 mps 717 mmHg 87%

4 March, Thursday

Time Temperature Precipitation Wind Pressure Humidity
00:00 +9°C° 0 mm 1 mps 717 mmHg 87%
01:00 +9°C° 0 mm 1 mps 717 mmHg 87%
02:00 +9°C° 0 mm 1 mps 716 mmHg 86%
03:00 +8°C° 0 mm 1 mps 716 mmHg 86%
04:00 +8°C° 0 mm 1 mps 716 mmHg 85%
05:00 +8°C° 0 mm 1 mps 716 mmHg 84%
06:00 +9°C° 0 mm 1 mps 716 mmHg 83%
07:00 +10°C° 0 mm 1 mps 716 mmHg 81%
08:00 +12°C° 0 mm 1 mps 716 mmHg 79%
09:00 +13°C° 0 mm 1 mps 716 mmHg 73%
10:00 +15°C° 0 mm 1 mps 716 mmHg 66%
11:00 +18°C° 0 mm 1 mps 716 mmHg 60%
12:00 +18°C° 0.1 mm 1 mps 715 mmHg 58%
13:00 +19°C° 0.1 mm 1 mps 715 mmHg 56%
14:00 +19°C° 0.1 mm 1 mps 715 mmHg 55%
15:00 +18°C° 0.2 mm 1 mps 714 mmHg 62%
16:00 +15°C° 0.2 mm 1 mps 714 mmHg 69%
17:00 +12°C° 0.2 mm 0 mps 713 mmHg 76%
18:00 +11°C° 0 mm 0 mps 713 mmHg 77%
19:00 +12°C° 0 mm 1 mps 713 mmHg 78%
20:00 +11°C° 0 mm 1 mps 713 mmHg 79%
21:00 +10°C° 0 mm 1 mps 713 mmHg 79%
22:00 +10°C° 0 mm 1 mps 713 mmHg 79%
23:00 +10°C° 0 mm 1 mps 713 mmHg 80%
Show more